EST,Max TemperatureF,Mean TemperatureF,Min TemperatureF,Max Dew PointF,MeanDew PointF,Min DewpointF,Max Humidity, Mean Humidity, Min Humidity, Max Sea Level PressureIn, Mean Sea Level PressureIn, Min Sea Level PressureIn, Max VisibilityMiles, Mean VisibilityMiles, Min VisibilityMiles, Max Wind SpeedMPH, Mean Wind SpeedMPH, Max Gust SpeedMPH,PrecipitationIn, CloudCover, Events, WindDirDegrees
2012-11-1,44,42,39,41,38,36,93,85,76,29.74,29.70,29.64,10,7,2,16,12,23,0.00,7,Rain,278
2012-11-2,44,42,41,36,31,28,76,66,61,30.02,29.91,29.77,10,10,10,18,14,29,0.00,8,Rain,316
2012-11-3,42,42,41,36,34,30,76,72,61,30.14,30.12,30.07,10,10,7,16,10,,0.00,8,,353
2012-11-4,41,39,37,34,31,28,87,68,61,30.16,30.14,30.12,10,10,7,12,8,,0.00,8,,351
2012-11-5,39,38,37,30,28,27,70,67,65,30.19,30.17,30.16,15,12,7,12,8,,0.00,8,,70
2012-11-6,44,38,32,30,26,23,75,61,46,30.12,30.05,29.98,20,16,10,13,8,,0.00,1,,98
2012-11-7,46,39,32,30,27,25,81,65,43,30.10,30.03,29.96,20,13,10,14,8,,0.00,4,,76
2012-11-8,42,38,32,32,31,30,93,73,61,30.20,30.17,30.15,20,12,10,13,7,,0.00,6,,307
2012-11-9,51,45,39,39,37,34,81,67,58,30.23,30.18,30.13,10,6,3,13,9,,0.00,5,,206
2012-11-10,64,56,48,45,44,41,87,58,45,30.21,30.16,30.11,10,10,7,17,11,,0.00,3,,185
2012-11-11,68,62,55,39,37,34,51,38,33,30.25,30.18,30.09,10,10,10,18,14,25,0.00,5,,184
2012-11-12,64,50,35,54,43,27,94,77,52,30.29,30.10,29.98,10,6,3,21,14,29,0.00,7,Rain,240
2012-11-13,37,34,33,30,28,25,87,74,65,30.53,30.46,30.36,15,9,2,16,10,,0.00,8,Snow,240
2012-11-14,39,36,30,28,27,25,86,67,56,30.58,30.51,30.43,20,12,7,12,7,,0.00,7,,133
2012-11-15,46,39,32,32,29,25,87,69,53,30.38,30.35,30.32,20,12,10,9,7,,0.00,4,,55
2012-11-16,48,39,30,34,31,25,93,71,43,30.50,30.45,30.39,10,9,7,12,4,,0.00,1,,47
2012-11-17,55,42,28,36,32,27,93,65,38,30.62,30.57,30.56,20,10,7,8,4,,0.00,4,,89
2012-11-18,55,46,37,32,30,28,75,53,36,30.53,30.47,30.43,10,10,10,14,10,,0.00,3,,133
2012-11-19,53,45,37,37,33,30,75,60,44,30.40,30.32,30.22,10,9,7,14,9,,0.00,5,,130
2012-11-20,57,48,39,39,33,30,81,56,38,30.17,30.14,30.10,20,11,7,7,5,,0.00,7,,108
2012-11-21,59,47,35,37,33,30,93,62,34,30.24,30.22,30.20,20,11,5,9,5,,0.00,1,,115
2012-11-22,62,53,44,39,35,30,66,47,32,30.19,30.09,29.96,20,12,10,16,11,21,0.00,4,,190
2012-11-23,53,42,32,34,31,28,93,70,44,29.97,29.87,29.79,15,8,2,22,16,36,0.00,7,Rain-Snow,267
2012-11-24,35,34,32,23,21,19,69,59,52,30.07,30.04,30.00,15,12,10,20,16,28,0.00,8,Snow,300
2012-11-25,41,34,28,30,26,21,86,70,57,29.97,29.91,29.84,20,9,2,17,13,25,0.00,7,Snow,254
2012-11-26,42,38,35,30,28,27,75,66,57,30.23,30.18,30.10,10,10,10,12,9,,0.00,7,,309
2012-11-27,35,32,28,23,23,21,75,66,60,30.33,30.29,30.27,10,10,10,9,7,,0.00,7,,331
2012-11-28,37,34,30,27,25,23,80,67,60,30.32,30.29,30.24,20,10,6,22,14,21,0.00,6,,256
2012-11-29,48,40,32,27,23,19,75,48,32,30.34,30.27,30.23,20,17,10,18,12,,0.00,3,,216
2012-11-30,51,44,37,34,30,25,81,58,44,30.24,30.21,30.15,10,10,7,12,8,,0.00,7,,149